Regional Weather Roundup
Issued by NWS

Home | Current Version | Previous Version | Graphics & Text | Print | Product List | Glossary On
Versions: 1 2 3 4 5 6 7 8 9 10 11 12 13 14 15 16 17 18 19 20 21 22 23 24 25 26 27 28 29 30 31 32 33 34 35 36 37 38 39 40 41 42 43 44 45 46 47 48 49 50
000
ASUS43 KMPX 030401
RWRMN
WEATHER ROUNDUP FOR MINNESOTA
NATIONAL WEATHER SERVICE TWIN CITIES/CHANHASSEN MN
1100 PM CDT TUE SEP 02 2014


NOTE: "FAIR" INDICATES FEW OR NO CLOUDS BELOW 12,000 FEET WITH NO
SIGNIFICANT WEATHER AND/OR OBSTRUCTIONS TO VISIBILITY. N/A MEANS
CURRENT SKY AND/OR WEATHER CONDITIONS ARE NOT AVAILABLE.

MNZ060>063-068>070-030500-
   Twin Cities Metro

CITY           SKY/WX    TMP DP  RH WIND       PRES   REMARKS
TWIN CITIES    PTCLDY    68  58  70 SW7       29.87S
ST PAUL        CLEAR     66  58  75 E3        29.87S
CRYSTAL        CLEAR     68  56  65 SW5       29.85S
BLAINE         CLEAR     68  57  68 SW6       29.87S
LAKEVILLE      CLEAR     63  57  82 CALM      29.89S
EDEN PRAIRIE   CLEAR     65  58  78 SW7       29.87S
SOUTH ST PAUL  CLEAR     67  56  70 CALM      29.87S
LAKE ELMO      FAIR      59  55  88 S6        29.88S
$$
MNZ001>005-007-008-013>017-022>024-027-028-030500-
   Northwest Minnesota

CITY           SKY/WX    TMP DP  RH WIND       PRES   REMARKS
BEMIDJI        PTCLDY    59  54  85 CALM      29.77R
HALLOCK        FOG       54  52  94 CALM      29.72S VSB 1/2
ROSEAU         PTCLDY    55  50  82 S6        29.73R
WARROAD        CLEAR     54  52  94 SW5       29.73R
THIEF RVR FALL MOCLDY    55  52  88 CALM      29.73S
CROOKSTON      MOCLDY    61  54  77 W6        29.73R
FOSSTON        MOCLDY    57  54  88 CALM      29.76R
DETROIT LAKES  CLEAR     68  55  64 SW9       29.79R
MOORHEAD       PTCLDY    66  61  82 S3        29.77S
PARK RAPIDS    PTCLDY    62  56  80 SW8       29.78S
MAHNOMEN       FAIR      60  56  89 S9        29.76R
$$
MNZ006-009>011-018-025>026-030500-
   North Central Minnesota

CITY           SKY/WX    TMP DP  RH WIND       PRES   REMARKS
BAUDETTE       PTCLDY    55  52  89 SW7       29.72R
FLAG ISLAND    CLEAR     61  55  82 SW13      29.70R
INTL FALLS     CLOUDY    56  54  93 S3        29.74S
WASKISH        PTCLDY    55  54  94 SE6       29.75S
BIG FORK       CLOUDY    55  54  94 CALM      29.82S
LONGVILLE      MOCLDY    61  57  88 S3        29.79R
GRAND RAPIDS   CLOUDY    64  54  68 S6        29.79S
CRANE LAKE     LGT RAIN  55  54  94 S5        29.81F
ORR            LGT RAIN  55  54  94 CALM      29.80R
COOK           RAIN      55  55 100 SW3       29.83F
WALKER         FAIR      59  57  94 CALM      29.77S
$$
MNZ012-019>021-037-030500-
   Northeast Minnesota

CITY           SKY/WX    TMP DP  RH WIND       PRES   REMARKS
DULUTH         PTCLDY    59  52  77 S7        29.82S
ELY            LGT RAIN  54  52  94 CALM      29.79R
HIBBING        LGT RAIN  59  54  83 N7        29.81R
EVELETH        PTCLDY    52  52 100 NW20G26   29.85R
DULUTH HARBOR  CLEAR     61  55  82 CALM      29.81S
TWO HARBORS    CLEAR     52  46  82 CALM      29.80S
SILVER BAY     CLEAR     46  46 100 CALM      29.81S
GRAND MARAIS     N/A     54  51  90 CALM      29.79S
G MARAIS ARPRT CLEAR     50  46  87 S3        29.83R
$$
MNZ029>031-032-039>041-046>048-054>057-064-030500-
   West Central Minnesota

CITY           SKY/WX    TMP DP  RH WIND       PRES   REMARKS
FERGUS FALLS   CLEAR     64  54  68 S12       29.79R
WHEATON        PTCLDY    61  55  82 S9        29.80S
MORRIS         CLEAR     63  55  77 S7        29.81S
ALEXANDRIA     CLEAR     66  55  67 S13       29.84S
ELBOW LAKE     FAIR      62  57  82 S10       29.80S
WADENA         CLEAR     63  55  77 SW7       29.80R
GLENWOOD       CLEAR     59  55  88 S5        29.84F
APPLETON       PTCLDY    66  55  68 S8        29.82S
BENSON         CLEAR     61  55  82 S7        29.83S
ORTONVILLE     MOCLDY    61  55  82 SE3       29.81S
MADISON        PTCLDY    63  57  82 S7        29.83S
WILLMAR        FAIR      64  55  72 CALM      29.87F
$$
MNZ033>034-036-042>043-049>051-058-059-030500-
   Central Minnesota

CITY           SKY/WX    TMP DP  RH WIND       PRES   REMARKS
ST CLOUD       CLEAR     63  57  81 S7        29.84S
SAUK CENTRE    FAIR      61  55  82 S8        29.84S
PAYNESVILLE    HVY RAIN  61  56  82 SE7       29.86S
AITKIN         PTCLDY    70  57  64 SW8       29.79S
PINE RIVER     PTCLDY    64  55  72 SW8       29.83R
BRAINERD       PTCLDY    62  55  77 S9        29.82S
STAPLES        CLEAR     63  55  77 S9        29.81R
LONG PRAIRIE   FAIR      63  54  72 S9        29.83F
LITTLE FALLS   CLEAR     61  54  77 S3        29.83S
LITCHFIELD     CLEAR     64  61  88 CALM      29.87S
BUFFALO        CLEAR     64  57  77 S3        29.87S
MAPLE LAKE     CLEAR     65  59  81 S5        29.87S
$$
MNZ037-044-045-052-053-030500-
   East Central Minnesota

CITY           SKY/WX    TMP DP  RH WIND       PRES   REMARKS
PRINCETON      CLEAR     64  57  77 S3        29.85S
MORA           CLEAR     61  54  77 S3        29.86S
CAMBRIDGE      CLEAR     66  54  63 S5        29.84S
RUSH CITY      PTCLDY    64  55  71 S5        29.85S
MOOSE LAKE     CLEAR     54  52  94 S5        29.81S
HINCKLEY       FAIR      59  54  82 SW5       29.84S
CLOQUET        CLEAR     61  52  72 SW3       29.82S
MCGREGOR       PTCLDY    63  57  82 S6        29.81S
$$
MNZ071>073-080-081-089-090-097-098-030500-
   Southwest Minnesota

CITY           SKY/WX    TMP DP  RH WIND       PRES   REMARKS
MONTEVIDEO     PTCLDY    64  55  72 SW8       29.85S
GRANITE FALLS  PTCLDY    59  57  93 S8        29.88S
CANBY          PTCLDY    61  56  81 S6        29.85S
MARSHALL       PTCLDY    63  54  72 S8        29.86S
REDWOOD FALLS  PTCLDY    62  58  86 S8        29.88R
OLIVIA         CLEAR     63  55  77 S7        29.87S
PIPESTONE      CLEAR     61  55  82 SE3       29.90S
WINDOM         MOCLDY    63  55  77 S7        29.92R
WORTHINGTON    PTCLDY    61  57  88 S6        29.93S
JACKSON        MOCLDY    59  55  88 S5        29.93S
TRACY          PTCLDY    65  57  75 S10       29.89S
SLAYTON        PTCLDY    58  56  93 CALM      29.92S
$$
MNZ065>067-074>077-082>085-091>093-030500-
   South Central Minnesota

CITY           SKY/WX    TMP DP  RH WIND       PRES   REMARKS
MANKATO        PTCLDY    64  54  68 S6        29.90S
NEW ULM        PTCLDY    63  59  88 SW6       29.89S
ST JAMES       MOCLDY    61  57  88 S3        29.92R
FAIRMONT       MOCLDY    61  54  77 S6        29.92S
GLENCOE        CLEAR     64  56  76 S3        29.88R
FARIBAULT      CLEAR     63  55  77 CALM      29.91S
OWATONNA       CLEAR     64  57  77 S6        29.91S
WASECA         PTCLDY    57  52  82 S3        29.93S
ALBERT LEA     PTCLDY    64  61  88 SW3       29.93R
$$
MNZ078>079-086>088-094>096-030500-
   Southeast Minnesota

CITY           SKY/WX    TMP DP  RH WIND       PRES   REMARKS
ROCHESTER      CLEAR     60  56  86 S6        29.94R
RED WING       CLEAR     59  57  94 CALM      29.88S
STANTON        CLEAR     60  56  88 S3        29.88S
DODGE CENTER   CLEAR     63  57  82 SW5       29.93R
WINONA         CLEAR     61  59  94 CALM      29.92R
AUSTIN         PTCLDY    61  57  88 CALM      29.93S
PRESTON        CLEAR     60  60  99 CALM      29.94S
$$
ABBREVIATIONS USED IN REMARKS
   TC - TEMPERATURES IN CELSIUS
  WCI - WIND CHILL INDEX
   HX - HEAT INDEX
  VSB - VISIBILITY
$$



USA.gov is the U.S. government's official web portal to all federal, state and local government web resources and services.